[[{"header":{"parameterUnit":"m.s-1","parameterCategory":1,"la1":30.2991,"la2":30.254,"lo1":-89.0895,"lo2":-89.0444,"dy":0.0017,"dx":0.0017,"nx":28,"ny":28,"refTime":"2023-09-27T03:00:00:Z","depth":0,"parameterNumber":2,"parameterNumberName":"U-component_of_WINDS"},"data":[0,0,0,0,0,0,0,0,0,0,0,0,0,0,0,0,0,0,0,0,0,0,0,0,0,0,0,0,0,0,0,0,0,0,0,0,0,0,0,0,0,0,0,0,0,0,0,0,0,0,0,0,0,0,0,0,0,0,-4.9958,-4.9958,0,-4.9979,-4.9979,-4.998,-4.9845,-4.9841,-4.9837,-4.9833,-4.9854,-4.9858,-4.9862,0,0,0,0,0,0,0,0,0,0,0,0,0,-4.9799,-4.9803,-4.9958,-4.9958,-4.9959,-4.9979,-4.9979,-4.998,-4.9845,-4.9841,-4.9836,-4.9832,-4.9852,-4.9857,-4.9862,0,0,0,0,0,0,0,0,0,0,0,0,0,-4.9849,-4.9804,-4.9958,-4.9894,-4.9888,-4.9979,-4.9979,-4.998,-4.9846,-4.984,-4.9835,-4.9829,-4.9851,-4.9857,-4.9863,-5.0015,0,0,-4.9882,-4.9884,0,0,0,0,0,0,0,0,-4.9846,-4.9855,-4.9903,-4.9899,-4.9893,-4.9903,-4.9931,-4.9992,-4.9848,-4.9862,-4.9833,-4.9827,-4.9875,-4.9879,-4.9895,-5.0016,-5.0017,-4.9882,-4.9886,-4.9889,-4.989,0,0,0,0,0,0,0,-4.9843,-4.9853,-4.9966,-4.9904,-4.9898,-4.9863,-4.9864,-4.9942,-4.99,-4.9861,-4.9851,-4.9855,-4.9871,-4.989,-4.9895,-5.0018,-4.9882,-4.9887,-4.9891,-4.9894,-5.0264,-5.027,0,0,0,0,0,0,-4.9849,-4.9851,-4.9966,-4.9967,-4.9855,-4.9871,-4.9872,-4.9906,-4.9899,-4.9893,-4.986,-4.9849,-4.9882,-4.9888,-4.9895,-5.0072,-4.9888,-4.9894,-4.9898,-5.0258,-5.0265,-5.0272,0,0,0,0,0,0,-4.9846,-4.986,-4.9965,-4.9907,-4.9917,-4.988,-4.9919,-4.9909,-4.9928,-4.9899,-4.9891,-4.9887,-4.9878,-4.9886,-4.9986,-5.0071,-4.9897,-4.9903,-5.0251,-5.026,-5.0269,-5.0429,0,0,0,0,0,0,-4.9842,-4.986,-4.9918,-4.9909,-4.9921,-5.0057,-4.9924,-4.9914,-4.9939,-4.9924,-4.9922,-4.9916,-4.9874,-4.9978,-4.9992,-5.0076,-4.9907,-5.0243,-5.0255,-5.0266,-5.0416,-5.0443,-5.0466,0,0,0,0,0,-4.9836,-4.9962,-4.9922,-4.9936,-4.9993,-5.0062,-5.0069,-5.0018,-4.9946,-5.0004,-4.9985,-4.9916,-5.006,-4.9989,-5.0004,-5.0092,-5.0237,-5.0251,-5.0265,-5.0405,-5.0438,-5.0465,0,0,0,0,0,0,-4.9982,-4.996,-4.9915,-5.0041,-5.0055,-5.0039,-5.011,-5.0054,-5.0088,-5.0073,-5.0008,-5.0009,-5.012,-5.0115,-5.0037,-5.0238,-5.0136,-5.0153,-5.0237,-5.0268,-5.0292,-5.029,-4.9913,0,0,0,0,0,-5.0029,-5.0087,-5.0065,-5.0179,-5.0188,-5.0149,-5.0177,-5.0136,-5.0147,-5.0152,-5.0141,-5.0154,-5.0201,-5.0234,-5.0277,-5.0415,-5.0412,-5.0482,-5.0507,-5.0528,-5.0543,-5.0615,-5.0646,-5.0317,-5.0317,-5.0317,0,0,-5.0126,-5.0121,-5.0162,-5.0208,-5.0213,-5.0275,-5.0154,-5.0224,-5.0269,-5.0163,-5.0256,-5.0249,-5.0259,-5.0379,-5.0431,-5.0379,-5.0633,-5.0545,-5.0562,-5.0566,-5.0633,-5.0664,-5.0691,-5.0327,-5.0325,-5.0324,0,0,-5.0334,-5.0337,-5.0432,-5.044,-5.045,-5.0423,-5.0446,-5.0439,-5.043,-5.0524,-5.0445,-5.0497,-5.0581,-5.0591,-5.0607,-5.082,-5.0757,-5.0835,-5.0964,-5.1035,-5.1061,-5.1084,-5.1159,-5.1186,-5.0851,-5.0852,-5.0852,0,-5.0453,-5.0543,-5.0487,-5.0563,-5.0585,-5.0492,-5.0587,-5.0598,-5.0622,-5.0639,-5.058,-5.0683,-5.0683,-5.0804,-5.0856,-5.0872,-5.0896,-5.0835,-5.1062,-5.1084,-5.1104,-5.1175,-5.1204,-5.0861,-5.086,-5.0859,-5.0858,0,-5.0689,-5.0753,-5.0828,-5.0854,-5.0884,-5.0969,-5.0926,-5.0963,-5.092,-5.09,-5.0995,-5.0992,-5.1032,-5.1058,-5.1017,-5.1173,-5.114,-5.1073,-5.0968,-5.1146,-5.1211,-5.1238,-5.0875,-5.0871,-5.0868,-5.0866,0,0,-5.0989,-5.0983,-5.1011,-5.1021,-5.1026,-5.1074,-5.1154,-5.1194,-5.1227,-5.1246,-5.1312,-5.1385,-5.1323,-5.1341,-5.13,-5.1363,-5.1531,-5.1288,-5.1287,-5.1332,-5.1701,-5.1751,-5.1784,-5.1489,-5.1494,-5.1498,-5.17,0,-5.1192,-5.133,-5.1282,-5.1422,-5.1479,-5.1392,-5.1462,-5.1472,-5.1455,-5.1501,-5.1481,-5.1534,-5.1448,-5.1459,-5.1517,-5.1498,-5.1604,-5.1483,-5.1549,-5.1552,-5.1548,-5.1818,-5.1871,-5.2062,-5.1725,-5.173,-5.1733,0,-5.1447,-5.1477,-5.1624,-5.1617,-5.164,-5.1704,-5.1736,-5.1781,-5.179,-5.1773,-5.1795,-5.174,-5.1818,-5.1714,-5.182,-5.1739,-5.1763,-5.1758,-5.1764,-5.1768,-5.1653,-5.1828,-5.2122,-5.215,-5.1773,-5.177,-5.1767,0,-5.165,-5.1727,-5.1824,-5.1836,-5.1832,-5.1879,-5.1879,-5.1883,-5.1909,-5.1937,-5.1954,-5.1991,-5.2011,-5.204,-5.1997,-5.1926,-5.2109,-5.2002,-5.2096,-5.2098,-5.2138,-5.2136,-5.2439,-5.2156,-5.2155,-5.2155,-5.2154,0,-5.1881,-5.1974,-5.1916,-5.1976,-5.2076,-5.202,-5.2121,-5.2112,-5.2116,-5.2172,-5.2098,-5.2152,-5.2092,-5.2141,-5.2107,-5.22,-5.2209,-5.2197,-5.2187,-5.2204,-5.2205,-5.2218,-5.2203,-5.2162,-5.2161,-5.2159,-5.2158,0,-5.2125,-5.209,-5.219,-5.2178,-5.2177,-5.2252,-5.2241,-5.2295,-5.2273,-5.2345,-5.2358,-5.2323,-5.2376,-5.2336,-5.2388,-5.2365,-5.2487,-5.2459,-5.2485,-5.2476,-5.2573,-5.2564,-5.2894,-5.2934,-5.2626,-5.2629,-5.2632,0,-5.2275,-5.2344,-5.2339,-5.2372,-5.2377,-5.243,-5.2457,-5.2404,-5.2435,-5.2451,-5.2503,-5.255,-5.2584,-5.2673,-5.2652,-5.2691,-5.2662,-5.2775,-5.2668,-5.2682,-5.2663,-5.2659,-5.2666,-5.2797,-5.2801,-5.2804,-5.2806,0,-5.2543,-5.2522,-5.2564,-5.2601,-5.2635,-5.2661,-5.268,-5.2711,-5.2657,-5.2696,-5.2749,-5.2776,-5.2829,-5.2876,-5.2908,-5.2907,-5.2848,-5.284,-5.2864,-5.2881,-5.2893,-5.2887,-5.2543,-5.2833,-5.283,-5.2828,-5.2827,-5.2825,-5.2744,-5.2801,-5.2807,-5.2856,-5.2865,-5.2885,-5.2936,-5.292,-5.2964,-5.3003,-5.2969,-5.3033,-5.304,-5.3077,-5.3083,-5.3132,-5.3085,-5.312,-5.3129,-5.3138,-5.3152,-5.2886,-5.3138,-5.3137,-5.3136,-5.3136,-5.3135,0,-5.3008,-5.3007,-5.3053,-5.3083,-5.3122,-5.3063,-5.3082,-5.3118,-5.3175,-5.3187,-5.3222,-5.3284,-5.3329,-5.3312,-5.3351,-5.3394,-5.3368,-5.3406,-5.3402,-5.3402,-5.3191,-5.3166,-5.3426,-5.3426,-5.3426,-5.3426,-5.3426,-5.3426,-5.315,-5.3243,-5.3223,-5.332,-5.3319,-5.3381,-5.3397,-5.3415,-5.3424,-5.3496,-5.3533,-5.3522,-5.3521,-5.3561,-5.3599,-5.3593,-5.3611,-5.3659,-5.3643,-5.3446,-5.3417,-5.339,-5.3366,-5.3664,-5.3664,-5.385,-5.3851,-5.3853]},{"header":{"parameterUnit":"m.s-1","parameterCategory":1,"la1":30.2991,"la2":30.254,"lo1":-89.0895,"lo2":-89.0444,"dy":0.0017,"dx":0.0017,"nx":28,"ny":28,"refTime":"2023-09-27T03:00:00:Z","depth":0,"parameterNumber":3,"parameterNumberName":"V-component_of_WINDS"},"data":[0,0,0,0,0,0,0,0,0,0,0,0,0,0,0,0,0,0,0,0,0,0,0,0,0,0,0,0,0,0,0,0,0,0,0,0,0,0,0,0,0,0,0,0,0,0,0,0,0,0,0,0,0,0,0,0,0,0,-2.8064,-2.8064,0,-2.811,-2.811,-2.8111,-2.8084,-2.8083,-2.8081,-2.808,-2.8125,-2.8127,-2.813,0,0,0,0,0,0,0,0,0,0,0,0,0,-2.7949,-2.7952,-2.8064,-2.8065,-2.8065,-2.811,-2.811,-2.8111,-2.8084,-2.8083,-2.8081,-2.8079,-2.8124,-2.8127,-2.813,0,0,0,0,0,0,0,0,0,0,0,0,0,-2.7998,-2.7952,-2.8064,-2.8057,-2.8057,-2.811,-2.811,-2.8111,-2.8084,-2.8082,-2.8081,-2.8079,-2.8123,-2.8127,-2.813,-2.8191,0,0,-2.8141,-2.8143,0,0,0,0,0,0,0,0,-2.7995,-2.8002,-2.8058,-2.8058,-2.8058,-2.8089,-2.8086,-2.8138,-2.8085,-2.8074,-2.808,-2.8078,-2.8114,-2.8119,-2.8131,-2.8194,-2.8195,-2.8142,-2.8144,-2.8145,-2.8146,0,0,0,0,0,0,0,-2.7992,-2.8,-2.8082,-2.8058,-2.8058,-2.8051,-2.8055,-2.8096,-2.8104,-2.8075,-2.8073,-2.8079,-2.8114,-2.8128,-2.8132,-2.8196,-2.8142,-2.8145,-2.8147,-2.8148,-2.8308,-2.831,0,0,0,0,0,0,-2.7989,-2.7997,-2.8081,-2.8083,-2.8021,-2.8054,-2.8059,-2.8081,-2.8104,-2.8106,-2.808,-2.8077,-2.8123,-2.8128,-2.8134,-2.8205,-2.8145,-2.8149,-2.8151,-2.8306,-2.8308,-2.8311,0,0,0,0,0,0,-2.7987,-2.7997,-2.8079,-2.804,-2.805,-2.8058,-2.8083,-2.8083,-2.8097,-2.8108,-2.8109,-2.8093,-2.8122,-2.8129,-2.8177,-2.8207,-2.815,-2.8154,-2.8303,-2.8307,-2.831,-2.835,0,0,0,0,0,0,-2.7984,-2.7996,-2.8021,-2.8041,-2.8052,-2.8122,-2.8085,-2.8085,-2.8103,-2.81,-2.8121,-2.8122,-2.8121,-2.8172,-2.818,-2.8211,-2.8156,-2.8301,-2.8305,-2.8309,-2.8346,-2.8354,-2.8361,0,0,0,0,0,-2.798,-2.803,-2.8022,-2.8032,-2.8083,-2.8124,-2.813,-2.8128,-2.8106,-2.813,-2.8137,-2.8122,-2.8202,-2.8177,-2.8187,-2.8218,-2.8299,-2.8304,-2.8308,-2.8343,-2.8353,-2.8361,0,0,0,0,0,0,-2.8014,-2.8033,-2.8024,-2.8083,-2.8102,-2.812,-2.815,-2.8139,-2.8164,-2.816,-2.8155,-2.816,-2.821,-2.8219,-2.819,-2.8277,-2.8247,-2.8254,-2.827,-2.8279,-2.8287,-2.8283,-2.8159,0,0,0,0,0,-2.8028,-2.8061,-2.8076,-2.8126,-2.8136,-2.8141,-2.8159,-2.8156,-2.8175,-2.8183,-2.8194,-2.8212,-2.8241,-2.8261,-2.8288,-2.8347,-2.835,-2.8373,-2.8381,-2.8387,-2.8393,-2.8423,-2.8433,-2.8326,-2.8326,-2.8326,0,0,-2.8058,-2.8073,-2.8094,-2.8133,-2.8148,-2.8181,-2.8148,-2.8185,-2.8209,-2.8188,-2.8234,-2.8242,-2.8263,-2.8316,-2.834,-2.8325,-2.8423,-2.8393,-2.8398,-2.84,-2.8428,-2.8439,-2.8448,-2.8329,-2.8329,-2.8328,0,0,-2.8129,-2.8145,-2.8187,-2.8202,-2.8224,-2.8227,-2.8237,-2.8256,-2.8261,-2.8307,-2.8291,-2.8319,-2.837,-2.8384,-2.8398,-2.8473,-2.8459,-2.8482,-2.8521,-2.855,-2.8558,-2.8566,-2.8591,-2.86,-2.8488,-2.8488,-2.8488,0,-2.8164,-2.8214,-2.8211,-2.8248,-2.8265,-2.8247,-2.829,-2.8304,-2.8334,-2.8345,-2.8328,-2.839,-2.8403,-2.8458,-2.8476,-2.8489,-2.8499,-2.8479,-2.8558,-2.8565,-2.8572,-2.8596,-2.8605,-2.849,-2.849,-2.849,-2.8489,0,-2.8254,-2.8289,-2.8321,-2.835,-2.837,-2.841,-2.8411,-2.8432,-2.8426,-2.843,-2.8475,-2.849,-2.8519,-2.8532,-2.8526,-2.8586,-2.8576,-2.8558,-2.8527,-2.8584,-2.8607,-2.8616,-2.8494,-2.8493,-2.8492,-2.8492,0,0,-2.835,-2.8375,-2.8387,-2.8399,-2.8421,-2.8447,-2.8485,-2.8514,-2.8531,-2.8552,-2.8582,-2.8625,-2.8608,-2.8624,-2.8619,-2.8645,-2.8701,-2.8624,-2.8624,-2.8637,-2.8765,-2.8778,-2.8789,-2.8692,-2.8694,-2.8695,-2.8763,0,-2.8422,-2.8489,-2.8486,-2.8548,-2.8579,-2.8561,-2.8594,-2.861,-2.8614,-2.864,-2.8644,-2.8674,-2.865,-2.8659,-2.8684,-2.8689,-2.8727,-2.8684,-2.8719,-2.8721,-2.8714,-2.8801,-2.8815,-2.8879,-2.8772,-2.8774,-2.8775,0,-2.8515,-2.8539,-2.8604,-2.8619,-2.8632,-2.8662,-2.8687,-2.8712,-2.8729,-2.873,-2.8747,-2.8738,-2.8774,-2.8742,-2.8792,-2.8763,-2.8777,-2.8781,-2.8783,-2.8786,-2.8751,-2.8805,-2.8899,-2.8908,-2.8789,-2.8788,-2.8787,0,-2.8577,-2.8625,-2.8669,-2.868,-2.87,-2.8721,-2.873,-2.8745,-2.8762,-2.8783,-2.8794,-2.8819,-2.8833,-2.8852,-2.8849,-2.8826,-2.8899,-2.8867,-2.8899,-2.8899,-2.8915,-2.8914,-2.9012,-2.8925,-2.8925,-2.8925,-2.8925,0,-2.8658,-2.8698,-2.8697,-2.8725,-2.8768,-2.8763,-2.8806,-2.8813,-2.8826,-2.8853,-2.884,-2.8865,-2.886,-2.8886,-2.8883,-2.8924,-2.893,-2.8931,-2.893,-2.8932,-2.8932,-2.8941,-2.8936,-2.8928,-2.8927,-2.8926,-2.8926,0,-2.8734,-2.8736,-2.8783,-2.8797,-2.8801,-2.8833,-2.8844,-2.8869,-2.8871,-2.8906,-2.8914,-2.8917,-2.8946,-2.8945,-2.8977,-2.8976,-2.9025,-2.9019,-2.9019,-2.9018,-2.905,-2.9046,-2.9156,-2.917,-2.9075,-2.9076,-2.9077,0,-2.8785,-2.8816,-2.8833,-2.885,-2.886,-2.8889,-2.8905,-2.8901,-2.8918,-2.8939,-2.8961,-2.8988,-2.901,-2.9056,-2.9061,-2.9085,-2.9079,-2.9116,-2.9083,-2.9083,-2.9079,-2.9077,-2.9079,-2.9123,-2.9124,-2.9124,-2.9125,0,-2.8876,-2.8874,-2.8899,-2.8924,-2.8944,-2.8964,-2.8981,-2.8996,-2.8993,-2.9013,-2.9042,-2.9059,-2.9092,-2.9118,-2.9141,-2.9149,-2.9136,-2.9135,-2.9144,-2.9146,-2.9145,-2.9145,-2.9036,-2.9133,-2.9132,-2.9132,-2.9131,-2.9131,-2.894,-2.8966,-2.8981,-2.9009,-2.9021,-2.9038,-2.9061,-2.9066,-2.909,-2.9117,-2.9112,-2.9144,-2.9158,-2.9188,-2.9197,-2.9222,-2.9208,-2.9221,-2.9224,-2.9227,-2.9231,-2.9141,-2.9226,-2.9226,-2.9225,-2.9225,-2.9225,0,-2.9029,-2.9037,-2.9063,-2.9088,-2.9109,-2.9095,-2.9113,-2.9131,-2.916,-2.9175,-2.9196,-2.9228,-2.9253,-2.9259,-2.9283,-2.9301,-2.9296,-2.9308,-2.9306,-2.9308,-2.9242,-2.9231,-2.9312,-2.9312,-2.9312,-2.9312,-2.9311,-2.9311,-2.9077,-2.9119,-2.9119,-2.9166,-2.9174,-2.9206,-2.9217,-2.9231,-2.9242,-2.9279,-2.93,-2.9304,-2.9314,-2.9339,-2.9361,-2.9362,-2.9371,-2.9385,-2.9383,-2.9321,-2.9313,-2.9304,-2.9295,-2.9387,-2.9387,-2.9447,-2.9448,-2.9448]}]]